{"data":{"norad_id":66499,"intl_designator":"2025-263Q","name":"STARLINK-35816","alt_names":[],"object_type":"PAYLOAD","status":"ACTIVE","operator":null,"country":"US","launch_date":"2025-11-15","launch_site_code":"AFETR","launch_vehicle":null,"mission":null,"orbit_class":"UNKNOWN","rcs_meters":null,"size_class":null,"mass_kg":null,"dimensions":null,"purposes":["comms"],"wikipedia_slug":null,"has_3d_model":false,"image_url":null,"decayed_at":null,"tle_current":{"epoch":"2026-05-24T17:23:13.420032Z","epoch_age_seconds":95013,"freshness":"FRESH","line1":"1 66499U 25263Q   26144.72446088  .00018566  00000+0  68234-3 0  9999","line2":"2 66499  42.9939 281.6301 0003016 246.6819 113.3716 15.27584761 30527","mean_motion":15.27584761,"eccentricity":0.0003016,"inclination_deg":42.9939,"raan_deg":281.6301,"arg_perigee_deg":246.6819,"mean_anomaly_deg":113.3716,"bstar":0.00068234,"rev_number":3052,"period_min":94.266454913921,"perigee_km":480.965510503,"apogee_km":485.10416935684,"semimajor_km":6861.1718399299,"source":"CELESTRAK","updated_at":"2026-05-25T13:38:21.244714Z"}}}